Location: Grange Rosano
(44.4500°N, 6.9667°E)
Time: 19:08:55
(UTC+00:00)

Meteor 2-1 Rocket - Pass Details

Date: 26 May 2022
Orbit: 826 x 910 km, 81.3° (Epoch: 01 July)

Event Time Altitude Azimuth Distance (km) Brightness Sun altitude
Rises 02:43:43 0° 347° (NNW) 3,497 7.9 -10.8°
Reaches altitude 10° 02:46:12 10° 345° (NNW) 2,542 7.1 -10.5°
Maximum altitude 02:51:55 67° 264° (W) 934 4.3 -9.8°
Drops below altitude 10° 02:57:28 10° 182° (S) 2,468 6.2 -9.0°
Sets 02:59:52 0° 180° (S) 3,388 6.9 -8.7°
